Date String (YYYY-MM-DD hh:mm:ss) UTC,Instrument flags,absolute air pressure of the measurement (hPa),sample flow rate (lpm),inlet stack bypass flow (lpm),air temperature of the measurement (°C),ambient temperature measured by the external sensor (°C),aerosol sample conditioner tube jacket temperature (°C),OPC LED temperature (°C),internal box temperature (°C),relative humidity of the measurement (%),span deviation,mass concentration of particles derived from Lorenz-Mie calculation of OPC scattering (μg/m³),mass concentration of particles derived from Lorenz-Mie calculation of OPC scattering (μg/m³),mass concentration of particles derived from Lorenz-Mie calculation of OPC scattering (μg/m³)
DateTimeUTC,F1_M11,P_M11,Q1_M11,Q2_M11,T1_M11,T2_M11,T3_M11,T4_M11,T5_M11,U1_M11,ZSPAN_M11,X2_M11,X0_M11,X1_M11
2024-03-27 07:00:00,SystemResetWarning,0823.4,4.99,000.00,018.3,017.3,000.0,027.0,020.0,16.2,0001.1,0004.84,0008.66,0004.47
2024-03-27 07:01:00,SystemResetWarning,0823.4,4.99,000.00,018.2,017.3,000.0,027.0,020.0,16.6,0000.8,0004.67,0008.59,0004.29
2024-03-27 07:02:00,SystemResetWarning,0823.4,5.00,000.00,018.2,017.2,000.0,027.0,020.0,16.5,0000.1,0004.45,0008.40,0004.05
2024-03-27 07:03:00,SystemResetWarning,0823.4,4.99,000.00,018.2,017.2,000.0,027.0,020.0,16.1,0000.0,0004.29,0008.39,0003.87
2024-03-27 07:04:00,SystemResetWarning,0823.5,5.00,000.00,018.2,017.2,000.0,027.0,020.0,15.9,0000.0,0004.21,0008.34,0003.82
2024-03-27 07:05:00,SystemResetWarning,0823.4,5.00,000.00,018.2,017.2,000.0,027.0,020.0,16.0,0000.0,0004.24,0008.16,0003.82
2024-03-27 07:06:00,SystemResetWarning,0823.4,4.99,000.00,018.2,017.2,000.0,027.0,020.0,16.3,0000.0,0004.33,0007.85,0003.91
2024-03-27 07:07:00,SystemResetWarning,0823.5,5.00,000.00,018.2,017.4,000.0,027.1,020.1,16.5,0000.0,0004.31,0007.83,0003.88
2024-03-27 07:08:00,SystemResetWarning,0823.5,5.01,000.00,018.4,018.3,000.0,027.2,020.6,16.3,0000.0,0004.32,0007.99,0003.90
2024-03-27 07:09:00,SystemResetWarning,0823.5,4.99,000.00,018.6,018.9,000.0,027.2,020.9,16.0,0000.0,0004.35,0008.36,0003.93
2024-03-27 07:10:00,SystemResetWarning,0823.5,4.99,000.00,018.7,018.8,000.0,027.1,020.8,16.0,0000.0,0004.38,0008.51,0003.95
2024-03-27 07:11:00,SystemResetWarning,0823.5,5.01,000.00,018.7,018.6,000.0,027.1,020.7,16.0,0000.0,0004.30,0009.26,0003.84
2024-03-27 07:12:00,SystemResetWarning,0823.5,5.01,000.00,018.7,018.4,000.0,027.1,020.6,16.0,0000.0,0004.10,0009.03,0003.63
2024-03-27 07:13:00,SystemResetWarning,0823.5,5.01,000.00,018.7,018.3,000.0,027.1,020.5,15.9,0000.0,0003.87,0008.70,0003.41
2024-03-27 07:14:00,SystemResetWarning,0823.5,5.00,000.00,018.6,018.2,000.0,027.1,020.4,16.1,0000.0,0003.85,0008.54,0003.42
2024-03-27 07:15:00,SystemResetWarning,0823.5,5.00,000.00,018.6,018.1,000.0,027.1,020.4,16.2,0000.0,0003.92,0008.96,0003.47
2024-03-27 07:16:00,SystemResetWarning,0823.5,5.00,000.00,018.6,018.0,000.0,027.1,020.4,16.3,0000.0,0003.92,0009.11,0003.47
2024-03-27 07:17:00,SystemResetWarning,0823.5,4.99,000.00,018.6,018.0,000.0,027.1,020.3,16.4,0000.0,0003.77,0008.99,0003.32
2024-03-27 07:18:00,SystemResetWarning,0823.4,4.99,000.00,018.6,017.9,000.0,027.1,020.3,16.3,0000.0,0003.75,0009.00,0003.29
2024-03-27 07:19:00,SystemResetWarning,0823.5,5.00,000.00,018.5,017.8,000.0,027.1,020.3,16.1,0000.0,0003.76,0008.85,0003.30
2024-03-27 07:20:00,SystemResetWarning,0823.5,5.00,000.00,018.5,017.8,000.0,027.1,020.2,16.0,0000.0,0003.80,0008.35,0003.29
2024-03-27 07:21:00,SystemResetWarning,0823.5,5.00,000.00,018.5,017.8,000.0,027.1,020.2,15.9,0000.0,0003.77,0008.07,0003.27
2024-03-27 07:22:00,SystemResetWarning,0823.5,5.00,000.00,018.5,017.7,000.0,027.1,020.2,15.9,0000.0,0003.75,0007.61,0003.25
2024-03-27 07:23:00,SystemResetWarning,0823.5,5.01,000.00,018.4,017.7,000.0,027.1,020.2,15.8,0000.0,0003.73,0007.20,0003.22
2024-03-27 07:24:00,SystemResetWarning,0823.5,5.00,000.00,018.4,017.6,000.0,027.1,020.1,15.8,0000.0,0003.72,0007.45,0003.20
2024-03-27 07:25:00,SystemResetWarning,0823.5,5.00,000.00,018.4,017.6,000.0,027.1,020.1,15.7,0000.0,0003.75,0007.83,0003.20
2024-03-27 07:26:00,SystemResetWarning,0823.5,5.00,000.00,018.4,017.6,000.0,027.0,020.1,15.8,0000.0,0003.74,0007.66,0003.19
2024-03-27 07:27:00,SystemResetWarning,0823.5,5.00,000.00,018.3,017.5,000.0,027.0,020.0,15.8,0000.0,0003.73,0007.29,0003.17
2024-03-27 07:28:00,SystemResetWarning,0823.5,5.01,000.00,018.3,017.5,000.0,027.0,020.0,15.7,0000.0,0003.71,0007.26,0003.15
2024-03-27 07:29:00,SystemResetWarning,0823.5,5.01,000.00,018.3,017.5,000.0,027.0,020.0,15.6,0000.0,0003.69,0007.22,0003.14
2024-03-27 07:30:00,SystemResetWarning,0823.5,5.00,000.00,018.3,017.4,000.0,027.0,020.0,15.7,0000.0,0003.66,0007.00,0003.13
2024-03-27 07:31:00,SystemResetWarning,0823.5,4.99,000.00,018.3,017.4,000.0,027.0,020.0,15.7,0000.0,0003.61,0006.63,0003.13
2024-03-27 07:32:00,SystemResetWarning,0823.5,4.99,000.00,018.3,017.4,000.0,027.0,020.0,15.8,0000.0,0003.60,0006.52,0003.15
2024-03-27 07:33:00,SystemResetWarning,0823.5,5.01,000.00,018.3,017.4,000.0,027.0,020.0,15.7,0000.0,0003.59,0006.40,0003.17
2024-03-27 07:34:00,SystemResetWarning,0823.5,5.01,000.00,018.2,017.3,000.0,027.0,020.0,15.7,0000.0,0003.56,0006.21,0003.18
2024-03-27 07:35:00,SystemResetWarning,0823.5,5.00,000.00,018.2,017.3,000.0,027.0,020.0,15.7,0000.0,0003.55,0006.03,0003.19
2024-03-27 07:36:00,SystemResetWarning,0823.5,4.99,000.00,018.2,017.3,000.0,027.0,020.0,15.6,0000.0,0003.52,0005.34,0003.20
2024-03-27 07:37:00,SystemResetWarning,0823.5,5.00,000.00,018.2,017.2,000.0,027.0,020.0,15.7,0000.0,0003.53,0005.12,0003.21
2024-03-27 07:38:00,SystemResetWarning,0823.5,5.00,000.00,018.2,017.2,000.0,027.0,020.0,15.8,0000.0,0003.58,0005.24,0003.27
2024-03-27 07:39:00,SystemResetWarning,0823.5,5.00,000.00,018.2,017.2,000.0,027.0,020.0,15.9,0000.0,0003.68,0005.41,0003.37
2024-03-27 07:40:00,SystemResetWarning,0823.5,5.01,000.00,018.3,017.8,000.0,027.1,020.3,15.9,0000.0,0003.77,0005.65,0003.46
2024-03-27 07:41:00,SystemResetWarning,0823.5,5.00,000.00,018.5,018.8,000.0,027.2,020.9,15.7,0000.0,0003.89,0005.91,0003.56
2024-03-27 07:42:00,SystemResetWarning,0823.6,5.00,000.00,018.8,019.3,000.0,027.2,021.1,15.4,0000.0,0004.00,0006.18,0003.66
2024-03-27 07:43:00,SystemResetWarning,0823.5,4.98,000.00,018.8,019.1,000.0,027.2,021.0,15.4,0000.0,0004.13,0007.20,0003.76
2024-03-27 07:44:00,SystemResetWarning,0823.5,5.01,000.00,018.8,018.8,000.0,027.1,020.8,15.3,0000.0,0004.20,0007.91,0003.83
2024-03-27 07:45:00,SystemResetWarning,0823.5,5.01,000.00,018.8,018.6,000.0,027.1,020.7,15.2,0000.0,0004.25,0007.97,0003.87
2024-03-27 07:46:00,SystemResetWarning,0823.5,5.00,000.00,018.8,018.5,000.0,027.1,020.6,15.3,0000.0,0004.30,0008.08,0003.91
2024-03-27 07:47:00,SystemResetWarning,0823.5,4.99,000.00,018.7,018.3,000.0,027.1,020.5,15.3,0000.0,0004.37,0008.13,0003.97
2024-03-27 07:48:00,SystemResetWarning,0823.5,4.99,000.00,018.7,018.2,000.0,027.2,020.5,15.4,0000.0,0004.45,0008.19,0004.05
2024-03-27 07:49:00,SystemResetWarning,0823.5,5.00,000.00,018.7,018.1,000.0,027.2,020.5,15.7,0000.5,0004.53,0008.22,0004.16
2024-03-27 07:50:00,SystemResetWarning,0823.5,5.00,000.00,018.7,018.0,000.0,027.2,020.4,15.9,0000.7,0004.62,0008.51,0004.26
2024-03-27 07:51:00,SystemResetWarning,0823.5,5.00,000.00,018.7,017.9,000.0,027.2,020.4,15.8,0001.5,0004.70,0008.84,0004.34
2024-03-27 07:52:00,SystemResetWarning,0823.4,5.01,000.00,018.6,017.8,000.0,027.2,020.3,15.9,0002.5,0004.68,0008.78,0004.34
2024-03-27 07:53:00,SystemResetWarning,0823.4,5.00,000.00,018.6,017.7,000.0,027.2,020.2,16.0,0003.0,0004.74,0008.85,0004.38
2024-03-27 07:54:00,SystemResetWarning,0823.4,5.00,000.00,018.5,017.7,000.0,027.2,020.2,16.2,0002.9,0004.84,0008.57,0004.49
2024-03-27 07:55:00,SystemResetWarning,0823.4,5.00,000.00,018.5,017.7,000.0,027.1,020.2,16.1,0001.1,0004.98,0008.13,0004.61
2024-03-27 07:56:00,SystemResetWarning,0823.4,5.01,000.00,018.5,017.6,000.0,027.1,020.2,16.0,0000.0,0005.15,0008.32,0004.78
2024-03-27 07:57:00,SystemResetWarning,0823.4,5.00,000.00,018.5,017.6,000.0,027.1,020.2,16.0,0000.0,0005.32,0008.96,0004.93
2024-03-27 07:58:00,SystemResetWarning,0823.4,4.99,000.00,018.5,017.6,000.0,027.1,020.2,16.0,0000.0,0005.47,0009.48,0005.07
2024-03-27 07:59:00,SystemResetWarning,0823.4,4.99,000.00,018.4,017.6,000.0,027.1,020.1,16.1,0000.0,0005.58,0009.60,0005.18
